Weather History for Olathe, KS

Change the Weather History Date:

Tuesday, March 12, 2013

  Actual Average Record
Temperature  
Mean Temperature 38 °F 44 °F  
Max Temperature 47 °F 54 °F 77 °F (1990)
Min Temperature 28 °F 33 °F -2 °F (1998)
Degree Days  
Heating Degree Days 27 22  
Month to date heating degree days 349 283  
Since 1 July heating degree days 4002 4176  
Cooling Degree Days 0 0  
Month to date cooling degree days 0 0  
Year to date cooling degree days 1 0  
Moisture  
Dew Point 22 °F    
Average Humidity 56    
Maximum Humidity 78    
Minimum Humidity 34    
Precipitation  
Precipitation 0.00 in 0.08 in 1.32 in (1961)
Month to date precipitation 0.64 1.02  
Year to date precipitation 4.55 3.71  
Sea Level Pressure  
Sea Level Pressure 30.19 in    
Wind  
Wind Speed 11 mph (NW)    
Max Wind Speed 24 mph    
Max Gust Speed 33 mph    
Visibility 10 miles    
Events      
T = Trace of Precipitation, MM = Missing Value Source: NWS Daily Summary

Daily Weather History Graph

Daily Weather History Graph

Search for Another Location

Airport:

Trip Planner

Search our weather history database for the weather conditions in past years. The results will help you decide how hot, cold, wet, or windy it might be!

Date:

Astronomy

Mar. 12, 2013 Rise Set
Actual Time 7:34 AM CDT 7:23 PM CDT
Civil Twilight 7:07 AM CDT 7:49 PM CDT
Nautical Twilight 6:37 AM CDT 8:20 PM CDT
Astronomical Twilight 6:05 AM CDT 8:51 PM CDT
Moon 7:42 AM CDT (3/12) 8:38 PM CDT (3/12)
Length of Visible Light 12h 41m
Length of Day
11h 48m
New Moon, 1% of the Moon is Illuminated
Mar 12
New Moon
Mar 19
First Quarter
Mar 27
Full
Apr 2
Last Quarter
Apr 10
New

Hourly Weather History & Observations

Time (CDT) Temp. Windchill Dew Point Humidity Pressure Visibility Wind Dir Wind Speed Gust Speed Precip Events Conditions
12:53 AM 32.0 °F 28.7 °F 19.9 °F 61% 30.04 in 10.0 mi West 3.5 mph - N/A   Clear
1:53 AM 32.0 °F - 21.0 °F 64% 30.04 in 10.0 mi Calm Calm - N/A   Clear
2:53 AM 34.0 °F 28.8 °F 19.9 °F 56% 30.05 in 10.0 mi WNW 5.8 mph - N/A   Clear
3:53 AM 34.0 °F 26.6 °F 21.0 °F 59% 30.06 in 10.0 mi NW 9.2 mph - N/A   Clear
4:53 AM 32.0 °F 26.4 °F 21.9 °F 66% 30.07 in 10.0 mi NW 5.8 mph - N/A   Clear
5:53 AM 30.9 °F 25.2 °F 23.0 °F 72% 30.12 in 10.0 mi WNW 5.8 mph - N/A   Partly Cloudy
6:53 AM 30.0 °F - 24.1 °F 79% 30.14 in 10.0 mi Calm Calm - N/A   Clear
7:53 AM 30.0 °F - 24.1 °F 79% 30.15 in 10.0 mi Calm Calm - N/A   Clear
8:53 AM 32.0 °F 26.4 °F 25.0 °F 75% 30.18 in 10.0 mi West 5.8 mph - N/A   Clear
9:53 AM 35.1 °F 27.4 °F 26.1 °F 70% 30.20 in 10.0 mi West 10.4 mph - N/A   Partly Cloudy
10:53 AM 39.0 °F 33.4 °F 27.0 °F 62% 30.22 in 10.0 mi West 8.1 mph - N/A   Overcast
11:53 AM 43.0 °F 36.4 °F 26.1 °F 51% 30.22 in 10.0 mi WNW 12.7 mph 20.7 mph N/A   Partly Cloudy
12:53 PM 43.0 °F 36.0 °F 23.0 °F 45% 30.21 in 10.0 mi West 13.8 mph 26.5 mph N/A   Mostly Cloudy
1:53 PM 46.0 °F 38.3 °F 21.9 °F 39% 30.20 in 10.0 mi NW 20.7 mph 31.1 mph N/A   Scattered Clouds
2:53 PM 46.9 °F - 19.9 °F 34% 30.18 in 10.0 mi NW 17.3 mph 29.9 mph N/A   Scattered Clouds
3:53 PM 46.9 °F - 19.9 °F 34% 30.19 in 10.0 mi NW 20.7 mph 28.8 mph N/A   Overcast
4:53 PM 42.1 °F 32.8 °F 21.9 °F 45% 30.23 in 10.0 mi NW 21.9 mph 29.9 mph N/A   Overcast
5:53 PM 41.0 °F 31.6 °F 19.9 °F 43% 30.24 in 10.0 mi NW 20.7 mph 28.8 mph N/A   Scattered Clouds
6:53 PM 39.9 °F 30.5 °F 19.0 °F 43% 30.25 in 10.0 mi NW 19.6 mph 24.2 mph N/A   Mostly Cloudy
7:53 PM 37.0 °F 27.7 °F 21.9 °F 54% 30.29 in 10.0 mi NNW 16.1 mph 21.9 mph N/A   Scattered Clouds
8:53 PM 35.1 °F 27.9 °F 21.9 °F 59% 30.30 in 10.0 mi NNW 9.2 mph - N/A   Clear
9:53 PM 33.1 °F 27.7 °F 21.9 °F 64% 30.32 in 10.0 mi NNW 5.8 mph - N/A   Clear
10:53 PM 32.0 °F 24.2 °F 21.0 °F 64% 30.34 in 10.0 mi NNW 9.2 mph - N/A   Clear
11:53 PM 30.9 °F 23.5 °F 21.0 °F 67% 30.35 in 10.0 mi NNW 8.1 mph - N/A   Clear